Fredericksburg, VA

10:07 PM EST on December 08, 2019 (GMT -0500)
Shannon

Weather History for KEZF - October, 2019

Change the Weather History Date:

Sunday, October 27, 2019

  Actual Average (KNYG) Record (KNYG)
Temperature  
Mean Temperature 70 °F -  
Max Temperature 82 °F 61 °F 82 °F (2019)
Min Temperature 57 °F 43 °F 33 °F (2001)
Cooling Degree Days 6    
Growing Degree Days 20 (Base 50)    
Moisture  
Dew Point 64 °F    
Average Humidity 84    
Maximum Humidity 100    
Minimum Humidity 47    
Precipitation  
Precipitation 0.63 in - - ()
Sea Level Pressure  
Sea Level Pressure 29.87 in    
Wind  
Wind Speed 6 mph ()    
Max Wind Speed 17 mph    
Max Gust Speed 28 mph    
Visibility 9.5 miles    
Events Rain    
Averages and records for this station are not official NWS values.
T = Trace of Precipitation, MM = Missing Value Source: Averaged Metar Reports

Daily Weather History Graph

Daily Weather History Graph

Search for Another Location

Airport or City:

Astronomy

Oct. 27, 2019 Rise Set
Actual Time 7:30 AM EDT 6:16 PM EDT
Civil Twilight 7:03 AM EDT 6:43 PM EDT
Nautical Twilight 6:32 AM EDT 7:14 PM EDT
Astronomical Twilight 6:01 AM EDT 7:45 PM EDT
Moon 6:38 AM EDT (10/27) 6:23 PM EDT (10/27)
Length of Visible Light 11h 40m
Length of Day
10h 45m
Waning Crescent, 0% of the Moon is Illuminated
Oct 27
Waning Crescent
Oct 27
New
Nov 4
First Quarter
Nov 12
Full
Nov 19
Last Quarter

Hourly Weather History & Observations

Time (EDT) Temp. Heat Index Dew Point Humidity Pressure Visibility Wind Dir Wind Speed Gust Speed Precip Events Conditions
12:15 AM 62.2 °F - 59.7 °F 91% 30.05 in 10.0 mi ESE 4.6 mph - N/A   Overcast
12:35 AM 62.2 °F - 59.9 °F 92% 30.04 in 10.0 mi East 8.1 mph - N/A   Mostly Cloudy
12:55 AM 62.1 °F - 60.1 °F 93% 30.03 in 10.0 mi ESE 6.9 mph - N/A   Scattered Clouds
1:15 AM 62.6 °F - 60.6 °F 93% 30.03 in 10.0 mi SE 3.5 mph - N/A   Mostly Cloudy
1:55 AM 62.6 °F - 60.8 °F 94% 30.03 in 10.0 mi East 4.6 mph - N/A   Overcast
2:15 AM 62.6 °F - 61.0 °F 94% 30.01 in 10.0 mi ESE 3.5 mph - N/A   Overcast
2:35 AM 63.0 °F - 61.7 °F 96% 29.99 in 10.0 mi ESE 4.6 mph - N/A Rain Rain
2:55 AM 62.8 °F - 61.9 °F 97% 29.98 in 10.0 mi East 5.8 mph - N/A Rain Light Rain
3:15 AM 62.2 °F - 62.2 °F 100% 29.96 in 10.0 mi ESE 4.6 mph - 0.01 in Rain Rain
3:35 AM 61.9 °F - 61.9 °F 100% 29.95 in 10.0 mi East 3.5 mph - 0.04 in Rain Rain
3:55 AM 61.7 °F - 61.7 °F 100% 29.93 in 5.0 mi ESE 6.9 mph - 0.08 in Rain Rain
4:15 AM 61.7 °F - 61.7 °F 100% 29.91 in 10.0 mi East 6.9 mph - 0.01 in Rain Rain
4:35 AM 61.9 °F - 61.9 °F 100% 29.90 in 7.0 mi East 4.6 mph - 0.01 in   Heavy Drizzle
4:55 AM 62.6 °F - 62.6 °F 100% 29.88 in 10.0 mi ESE 5.8 mph - 0.02 in Rain Rain
5:15 AM 62.8 °F - 62.8 °F 100% 29.86 in 10.0 mi ESE 6.9 mph - N/A   Light Drizzle
5:35 AM 64.0 °F - 64.0 °F 100% 29.86 in 10.0 mi SE 5.8 mph - N/A   Overcast
5:55 AM 66.4 °F - 66.4 °F 100% 29.85 in 10.0 mi SE 10.4 mph - 0.01 in Rain Light Rain
6:15 AM 67.1 °F - 67.1 °F 100% 29.83 in 10.0 mi SSE 11.5 mph 18.4 mph N/A Rain Rain
6:55 AM 68.0 °F - 68.0 °F 100% 29.81 in 10.0 mi SSE 13.8 mph - N/A Rain Rain
7:55 AM 69.6 °F - 69.6 °F 100% 29.80 in 10.0 mi SSE 13.8 mph 19.6 mph 0.01 in   Overcast
8:15 AM 70.0 °F - 70.0 °F 100% 29.79 in 10.0 mi SSE 11.5 mph 19.6 mph N/A   Overcast
8:35 AM 70.7 °F - 70.3 °F 99% 29.79 in 10.0 mi SSE 11.5 mph 24.2 mph N/A   Overcast
9:15 AM 71.2 °F - 70.9 °F 99% 29.79 in 10.0 mi South 11.5 mph 19.6 mph 0.02 in Rain Light Rain
9:35 AM 70.9 °F - 70.9 °F 100% 29.78 in 2.0 mi SSE 5.8 mph 9.2 mph 0.18 in Rain Heavy Rain
9:55 AM 70.9 °F - 70.9 °F 100% 29.78 in 3.0 mi SSE 5.8 mph - 0.28 in Rain Heavy Rain
10:15 AM 70.9 °F - 70.9 °F 100% 29.77 in 3.0 mi SSE 4.6 mph - 0.11 in Rain Heavy Rain
10:35 AM 71.1 °F - 71.1 °F 100% 29.75 in 7.0 mi SSW 5.8 mph - 0.22 in Rain Light Rain
10:55 AM 72.5 °F - 71.6 °F 97% 29.77 in 10.0 mi SW 17.3 mph 27.6 mph 0.23 in Rain Light Rain
11:15 AM 72.5 °F - 72.0 °F 98% 29.77 in 10.0 mi WSW 4.6 mph 17.3 mph N/A   Overcast
11:35 AM 73.9 °F - 72.7 °F 96% 29.78 in 10.0 mi WSW 8.1 mph - N/A   Overcast
11:55 AM 76.1 °F - 71.8 °F 86% 29.78 in 10.0 mi WSW 13.8 mph 17.3 mph N/A   Mostly Cloudy
12:15 PM 77.0 °F - 71.8 °F 84% 29.78 in 10.0 mi WSW 11.5 mph 16.1 mph N/A   Scattered Clouds
12:35 PM 78.3 °F - 71.4 °F 79% 29.79 in 10.0 mi WSW 11.5 mph 16.1 mph N/A   Scattered Clouds
12:55 PM 77.2 °F - 71.1 °F 81% 29.79 in 10.0 mi West 5.8 mph 9.2 mph N/A   Scattered Clouds
1:15 PM 79.3 °F - 70.9 °F 75% 29.78 in 10.0 mi West 9.2 mph 16.1 mph N/A   Mostly Cloudy
1:35 PM 78.8 °F - 69.3 °F 72% 29.78 in 10.0 mi West 6.9 mph - N/A   Scattered Clouds
1:55 PM 79.3 °F - 68.0 °F 68% 29.78 in 10.0 mi WSW 8.1 mph - N/A   Scattered Clouds
2:15 PM 79.7 °F - 66.9 °F 65% 29.77 in 10.0 mi West 8.1 mph - N/A   Scattered Clouds
2:35 PM 81.7 °F 83.6 °F 65.5 °F 58% 29.77 in 10.0 mi WNW 9.2 mph 18.4 mph N/A   Scattered Clouds
2:55 PM 81.9 °F 83.7 °F 65.3 °F 57% 29.78 in 10.0 mi West 15.0 mph 18.4 mph N/A   Clear
3:35 PM 82.0 °F 83.4 °F 64.0 °F 54% 29.78 in 10.0 mi West 8.1 mph 19.6 mph N/A   Clear
3:55 PM 82.2 °F 83.8 °F 64.6 °F 55% 29.79 in 10.0 mi WSW 4.6 mph - N/A   Clear
4:15 PM 80.6 °F 82.0 °F 63.7 °F 56% 29.79 in 10.0 mi West 8.1 mph - N/A   Clear
4:35 PM 81.9 °F 82.6 °F 61.3 °F 50% 29.80 in 10.0 mi West 10.4 mph 18.4 mph N/A   Clear
4:55 PM 81.9 °F 82.2 °F 60.1 °F 47% 29.81 in 10.0 mi West 10.4 mph - N/A   Scattered Clouds
5:15 PM 80.6 °F 81.4 °F 60.4 °F 50% 29.81 in 10.0 mi WNW 8.1 mph - N/A   Clear
5:35 PM 79.9 °F - 61.0 °F 52% 29.83 in 10.0 mi WNW 3.5 mph - N/A   Clear
5:55 PM 78.1 °F - 62.1 °F 58% 29.83 in 10.0 mi West 3.5 mph - N/A   Clear
6:15 PM 75.2 °F - 62.6 °F 65% 29.85 in 10.0 mi WSW 3.5 mph - N/A   Clear
6:35 PM 71.8 °F - 63.7 °F 76% 29.86 in 10.0 mi Calm Calm - N/A   Clear
6:55 PM 69.1 °F - 63.1 °F 81% 29.87 in 10.0 mi NW 6.9 mph - N/A   Clear
7:15 PM 70.2 °F - 62.2 °F 76% 29.88 in 10.0 mi Calm Calm - N/A   Clear
7:35 PM 66.4 °F - 62.6 °F 88% 29.90 in 10.0 mi Calm Calm - N/A   Clear
7:55 PM 65.1 °F - 62.4 °F 91% 29.91 in 10.0 mi NW 3.5 mph - N/A   Clear
8:15 PM 63.5 °F - 62.1 °F 95% 29.91 in 10.0 mi NNW 5.8 mph - N/A   Clear
8:35 PM 61.5 °F - 60.4 °F 96% 29.93 in 10.0 mi Calm Calm - N/A   Clear
8:55 PM 62.1 °F - 60.8 °F 96% 29.94 in 10.0 mi NNW 6.9 mph - N/A   Clear
9:15 PM 63.9 °F - 58.8 °F 84% 29.95 in 10.0 mi NW 6.9 mph - N/A   Clear
9:35 PM 64.8 °F - 56.8 °F 75% 29.96 in 10.0 mi NW 6.9 mph - N/A   Clear
9:55 PM 66.0 °F - 54.1 °F 65% 29.97 in 10.0 mi North 5.8 mph - N/A   Clear
10:15 PM 65.5 °F - 53.2 °F 65% 29.98 in 10.0 mi NNW 3.5 mph - N/A   Clear
10:35 PM 65.1 °F - 53.1 °F 65% 29.99 in 10.0 mi Calm Calm - N/A   Clear
10:55 PM 63.0 °F - 53.6 °F 71% 30.00 in 10.0 mi NW 3.5 mph - N/A   Clear
11:15 PM 61.9 °F - 53.6 °F 74% 30.00 in 10.0 mi NW 5.8 mph - N/A   Clear
11:35 PM 59.0 °F - 54.0 °F 83% 30.00 in 10.0 mi NW 3.5 mph - N/A   Clear
11:55 PM 57.2 °F - 53.8 °F 88% 30.00 in 10.0 mi NW 5.8 mph - N/A   Clear